Location: Kapla
(46.2483°N, 15.0094°E)
Time: 15:21:06
(UTC+00:00)

ATLAS CENTAUR R/B - Pass Details

Date: 03 March 2021
Orbit: 475 x 670 km, 64.7° (Epoch: 30 March)

Event Time Altitude Azimuth Distance (km) Brightness Sun altitude
Rises 19:59:11 0° 268° (W) 2,522 5.5 -32.7°
Reaches altitude 10° 20:02:13 10° 295° (WNW) 1,652 4.6 -33.2°
Enters shadow 20:03:16 13° 312° (NW) 1,491 4.3 -33.3°
